contact:dominique.lefevre@mio.osupytheas.fr, maurice.libes@osupytheas.fr, didier.mallarino@osupytheas.fr
Project:EMSO http://www.emso-fr.org/EMSO-France
Depth: 2436.0 m
Title:EMSO Ligure Ouest : Data MII capteur MICROCAT
DateTime_Computer,Latitude,Longitude,Temperature,Conductivity,Pressure,DateTime_Instrument
DateTime_Computer,Latitude,Longitude,degC,S m-1,dbar,DateTime_Instrument
2020-04-07T00:03:00Z,42.805,6.029,13.3030,4.60000,2469.96,2020-4-07T02:03:39Z
2020-04-07T00:06:03Z,42.805,6.029,13.3011,4.59999,2469.923,2020-4-07T02:06:42Z
2020-04-07T00:09:06Z,42.805,6.029,13.3002,4.60003,2469.947,2020-4-07T02:09:45Z
2020-04-07T00:12:09Z,42.805,6.029,13.3004,4.60021,2469.923,2020-4-07T02:12:48Z
2020-04-07T00:15:13Z,42.805,6.029,13.3009,4.60026,2469.96,2020-4-07T02:15:51Z
2020-04-07T00:18:16Z,42.805,6.029,13.3013,4.60026,2469.947,2020-4-07T02:18:55Z
2020-04-07T00:21:19Z,42.805,6.029,13.3024,4.60030,2469.923,2020-4-07T02:21:58Z
2020-04-07T00:24:22Z,42.805,6.029,13.3063,4.59997,2469.96,2020-4-07T02:25:01Z
2020-04-07T00:27:26Z,42.805,6.029,13.3063,4.59987,2469.923,2020-4-07T02:28:04Z
2020-04-07T00:30:29Z,42.805,6.029,13.3039,4.60001,2469.923,2020-4-07T02:31:08Z
2020-04-07T00:33:32Z,42.805,6.029,13.3040,4.59995,2469.914,2020-4-07T02:34:11Z
2020-04-07T00:36:35Z,42.805,6.029,13.3042,4.60002,2469.937,2020-4-07T02:37:14Z
2020-04-07T00:39:39Z,42.805,6.029,13.3026,4.59997,2469.937,2020-4-07T02:40:18Z
2020-04-07T00:42:42Z,42.805,6.029,13.3031,4.60001,2469.923,2020-4-07T02:43:21Z
2020-04-07T00:45:46Z,42.805,6.029,13.2998,4.60006,2469.914,2020-4-07T02:46:25Z
2020-04-07T00:48:49Z,42.805,6.029,13.3022,4.59999,2469.923,2020-4-07T02:49:28Z
2020-04-07T00:51:52Z,42.805,6.029,13.3055,4.60011,2469.923,2020-4-07T02:52:31Z
2020-04-07T00:54:55Z,42.805,6.029,13.3039,4.59991,2469.923,2020-4-07T02:55:34Z
2020-04-07T00:57:59Z,42.805,6.029,13.2992,4.60011,2469.923,2020-4-07T02:58:37Z
2020-04-07T01:01:02Z,42.805,6.029,13.2976,4.60022,2469.984,2020-4-07T03:01:41Z
2020-04-07T01:04:05Z,42.805,6.029,13.2976,4.60004,2469.9,2020-4-07T03:04:44Z
2020-04-07T01:07:08Z,42.805,6.029,13.2974,4.59991,2469.937,2020-4-07T03:07:47Z
2020-04-07T01:10:12Z,42.805,6.029,13.2977,4.59996,2469.937,2020-4-07T03:10:50Z
2020-04-07T01:13:15Z,42.805,6.029,13.2976,4.60062,2469.937,2020-4-07T03:13:54Z
2020-04-07T01:16:18Z,42.805,6.029,13.2976,4.60025,2469.937,2020-4-07T03:16:57Z
2020-04-07T01:19:21Z,42.805,6.029,13.3167,4.60047,2469.923,2020-4-07T03:20:00Z
2020-04-07T01:22:24Z,42.805,6.029,13.3120,4.60021,2469.937,2020-4-07T03:23:03Z
2020-04-07T01:25:28Z,42.805,6.029,13.2985,4.59991,2469.947,2020-4-07T03:26:07Z
2020-04-07T01:28:31Z,42.805,6.029,13.2978,4.59997,2469.923,2020-4-07T03:29:10Z
2020-04-07T01:31:34Z,42.805,6.029,13.2996,4.59991,2469.937,2020-4-07T03:32:13Z
2020-04-07T01:34:37Z,42.805,6.029,13.3020,4.60003,2469.937,2020-4-07T03:35:16Z
2020-04-07T01:37:41Z,42.805,6.029,13.3020,4.60063,2469.947,2020-4-07T03:38:20Z
2020-04-07T01:40:44Z,42.805,6.029,13.3005,4.60032,2469.947,2020-4-07T03:41:23Z
2020-04-07T01:43:47Z,42.805,6.029,13.2993,4.60037,2469.937,2020-4-07T03:44:26Z
2020-04-07T01:46:50Z,42.805,6.029,13.2993,4.60049,2469.937,2020-4-07T03:47:29Z
2020-04-07T01:49:54Z,42.805,6.029,13.3025,4.60053,2469.923,2020-4-07T03:50:32Z
2020-04-07T01:52:57Z,42.805,6.029,13.3008,4.60030,2469.923,2020-4-07T03:53:36Z
2020-04-07T01:56:00Z,42.805,6.029,13.3002,4.60040,2469.947,2020-4-07T03:56:39Z
2020-04-07T01:59:03Z,42.805,6.029,13.3003,4.60062,2469.96,2020-4-07T03:59:42Z
2020-04-07T02:02:06Z,42.805,6.029,13.2995,4.60069,2469.947,2020-4-07T04:02:45Z
2020-04-07T02:05:10Z,42.805,6.029,13.3015,4.60062,2469.937,2020-4-07T04:05:49Z
2020-04-07T02:08:13Z,42.805,6.029,13.3010,4.60068,2469.937,2020-4-07T04:08:52Z
2020-04-07T02:11:16Z,42.805,6.029,13.2991,4.60036,2469.984,2020-4-07T04:11:55Z
2020-04-07T02:14:19Z,42.805,6.029,13.3002,4.60050,2469.923,2020-4-07T04:14:58Z
2020-04-07T02:17:23Z,42.805,6.029,13.2996,4.60004,2469.96,2020-4-07T04:18:02Z
2020-04-07T02:20:26Z,42.805,6.029,13.2993,4.60021,2469.937,2020-4-07T04:21:05Z
2020-04-07T02:23:29Z,42.805,6.029,13.3004,4.60021,2469.984,2020-4-07T04:24:08Z
2020-04-07T02:26:32Z,42.805,6.029,13.2999,4.60032,2469.97,2020-4-07T04:27:11Z
2020-04-07T02:29:36Z,42.805,6.029,13.3006,4.60047,2469.984,2020-4-07T04:30:15Z
2020-04-07T02:32:39Z,42.805,6.029,13.3037,4.60001,2469.96,2020-4-07T04:33:18Z
2020-04-07T02:35:42Z,42.805,6.029,13.3016,4.59995,2469.984,2020-4-07T04:36:21Z
2020-04-07T02:38:45Z,42.805,6.029,13.2993,4.60022,2469.96,2020-4-07T04:39:24Z
2020-04-07T02:41:48Z,42.805,6.029,13.3006,4.59995,2469.984,2020-4-07T04:42:27Z
2020-04-07T02:44:52Z,42.805,6.029,13.3024,4.59991,2470.007,2020-4-07T04:45:31Z
2020-04-07T02:47:55Z,42.805,6.029,13.2987,4.60052,2469.984,2020-4-07T04:48:34Z
2020-04-07T02:50:58Z,42.805,6.029,13.3000,4.60013,2469.984,2020-4-07T04:51:37Z
2020-04-07T02:54:01Z,42.805,6.029,13.3076,4.60024,2469.96,2020-4-07T04:54:40Z
2020-04-07T02:57:05Z,42.805,6.029,13.3016,4.60072,2469.97,2020-4-07T04:57:43Z
2020-04-07T03:00:08Z,42.805,6.029,13.3022,4.60031,2469.97,2020-4-07T05:00:47Z
2020-04-07T03:03:11Z,42.805,6.029,13.3054,4.60044,2470.03,2020-4-07T05:03:50Z
2020-04-07T03:06:14Z,42.805,6.029,13.3054,4.60031,2470.03,2020-4-07T05:06:53Z
2020-04-07T03:09:18Z,42.805,6.029,13.3042,4.60019,2470.017,2020-4-07T05:09:56Z
2020-04-07T03:12:21Z,42.805,6.029,13.3040,4.60023,2470.017,2020-4-07T05:13:00Z
2020-04-07T03:15:24Z,42.805,6.029,13.3039,4.60030,2470.007,2020-4-07T05:16:03Z
2020-04-07T03:18:27Z,42.805,6.029,13.3030,4.60026,2470.03,2020-4-07T05:19:06Z
2020-04-07T03:21:30Z,42.805,6.029,13.3042,4.60016,2469.993,2020-4-07T05:22:09Z
2020-04-07T03:24:34Z,42.805,6.029,13.3029,4.60020,2470.03,2020-4-07T05:25:13Z
2020-04-07T03:27:37Z,42.805,6.029,13.3048,4.60008,2470.03,2020-4-07T05:28:16Z
2020-04-07T03:30:40Z,42.805,6.029,13.3052,4.60019,2470.007,2020-4-07T05:31:19Z
2020-04-07T03:33:43Z,42.805,6.029,13.3028,4.60002,2470.053,2020-4-07T05:34:22Z
2020-04-07T03:36:47Z,42.805,6.029,13.3028,4.60005,2470.03,2020-4-07T05:37:26Z
2020-04-07T03:39:50Z,42.805,6.029,13.3033,4.60014,2470.053,2020-4-07T05:40:29Z
2020-04-07T03:42:53Z,42.805,6.029,13.3019,4.60007,2470.04,2020-4-07T05:43:32Z
2020-04-07T03:45:56Z,42.805,6.029,13.3026,4.60018,2470.04,2020-4-07T05:46:35Z
2020-04-07T03:49:00Z,42.805,6.029,13.3034,4.60001,2470.1,2020-4-07T05:49:39Z
2020-04-07T03:52:03Z,42.805,6.029,13.3011,4.59998,2470.077,2020-4-07T05:52:42Z
2020-04-07T03:55:06Z,42.805,6.029,13.3023,4.60003,2470.063,2020-4-07T05:55:45Z
2020-04-07T03:58:09Z,42.805,6.029,13.3041,4.60016,2470.077,2020-4-07T05:58:48Z
2020-04-07T04:01:13Z,42.805,6.029,13.3024,4.60007,2470.077,2020-4-07T06:01:51Z
2020-04-07T04:04:16Z,42.805,6.029,13.3018,4.60006,2470.087,2020-4-07T06:04:55Z
2020-04-07T04:07:19Z,42.805,6.029,13.3026,4.60013,2470.1,2020-4-07T06:07:58Z
2020-04-07T04:10:22Z,42.805,6.029,13.3016,4.60020,2470.11,2020-4-07T06:11:01Z
2020-04-07T04:13:25Z,42.805,6.029,13.3014,4.60019,2470.087,2020-4-07T06:14:04Z
2020-04-07T04:16:29Z,42.805,6.029,13.3034,4.60019,2470.11,2020-4-07T06:17:08Z
2020-04-07T04:19:32Z,42.805,6.029,13.3022,4.60011,2470.11,2020-4-07T06:20:11Z
2020-04-07T04:22:35Z,42.805,6.029,13.3008,4.60035,2470.087,2020-4-07T06:23:14Z
2020-04-07T04:25:38Z,42.805,6.029,13.3029,4.60019,2470.124,2020-4-07T06:26:17Z
2020-04-07T04:28:42Z,42.805,6.029,13.3029,4.60005,2470.124,2020-4-07T06:29:21Z
2020-04-07T04:31:45Z,42.805,6.029,13.2991,4.60032,2470.124,2020-4-07T06:32:24Z
2020-04-07T04:34:48Z,42.805,6.029,13.2998,4.60039,2470.124,2020-4-07T06:35:27Z
2020-04-07T04:37:51Z,42.805,6.029,13.3028,4.60016,2470.11,2020-4-07T06:38:30Z
2020-04-07T04:40:55Z,42.805,6.029,13.3022,4.60036,2470.133,2020-4-07T06:41:33Z
2020-04-07T04:43:58Z,42.805,6.029,13.3041,4.59994,2470.147,2020-4-07T06:44:37Z
2020-04-07T04:47:01Z,42.805,6.029,13.3029,4.60031,2470.171,2020-4-07T06:47:40Z
2020-04-07T04:50:04Z,42.805,6.029,13.3025,4.60035,2470.171,2020-4-07T06:50:43Z
2020-04-07T04:53:07Z,42.805,6.029,13.3004,4.60005,2470.133,2020-4-07T06:53:46Z
2020-04-07T04:56:11Z,42.805,6.029,13.3007,4.60051,2470.147,2020-4-07T06:56:50Z
2020-04-07T04:59:14Z,42.805,6.029,13.2993,4.60037,2470.171,2020-4-07T06:59:53Z
2020-04-07T05:02:17Z,42.805,6.029,13.3004,4.59997,2470.18,2020-4-07T07:02:56Z
2020-04-07T05:05:20Z,42.805,6.029,13.3028,4.60022,2470.147,2020-4-07T07:05:59Z
2020-04-07T05:08:24Z,42.805,6.029,13.3020,4.60019,2470.124,2020-4-07T07:09:03Z
2020-04-07T05:11:27Z,42.805,6.029,13.3011,4.60003,2470.171,2020-4-07T07:12:06Z
2020-04-07T05:14:30Z,42.805,6.029,13.3009,4.60021,2470.171,2020-4-07T07:15:09Z
2020-04-07T05:17:33Z,42.805,6.029,13.3000,4.60086,2470.203,2020-4-07T07:18:12Z
2020-04-07T05:20:37Z,42.805,6.029,13.3020,4.60032,2470.171,2020-4-07T07:21:16Z
2020-04-07T05:23:40Z,42.805,6.029,13.3025,4.60043,2470.18,2020-4-07T07:24:19Z
2020-04-07T05:26:43Z,42.805,6.029,13.3040,4.60202,2470.194,2020-4-07T07:27:22Z
2020-04-07T05:29:47Z,42.805,6.029,13.3070,4.60074,2470.194,2020-4-07T07:30:25Z
2020-04-07T05:32:50Z,42.805,6.029,13.3053,4.60036,2470.171,2020-4-07T07:33:29Z
2020-04-07T05:35:53Z,42.805,6.029,13.3039,4.60040,2470.194,2020-4-07T07:36:32Z
2020-04-07T05:38:56Z,42.805,6.029,13.3053,4.60044,2470.156,2020-4-07T07:39:35Z
2020-04-07T05:42:00Z,42.805,6.029,13.3054,4.60050,2470.203,2020-4-07T07:42:39Z
2020-04-07T05:45:03Z,42.805,6.029,13.3043,4.60062,2470.18,2020-4-07T07:45:42Z
2020-04-07T05:48:06Z,42.805,6.029,13.3029,4.60034,2470.18,2020-4-07T07:48:45Z
2020-04-07T05:51:09Z,42.805,6.029,13.3005,4.60054,2470.194,2020-4-07T07:51:48Z
2020-04-07T05:54:12Z,42.805,6.029,13.2990,4.60062,2470.194,2020-4-07T07:54:51Z
2020-04-07T05:57:16Z,42.805,6.029,13.3004,4.60047,2470.203,2020-4-07T07:57:55Z
2020-04-07T06:00:19Z,42.805,6.029,13.2992,4.60062,2470.18,2020-4-07T08:00:58Z
2020-04-07T06:03:22Z,42.805,6.029,13.3025,4.60042,2470.18,2020-4-07T08:04:01Z
2020-04-07T06:06:25Z,42.805,6.029,13.3036,4.60060,2470.24,2020-4-07T08:07:04Z
2020-04-07T06:09:29Z,42.805,6.029,13.3009,4.60044,2470.217,2020-4-07T08:10:08Z
2020-04-07T06:12:32Z,42.805,6.029,13.3016,4.60059,2470.203,2020-4-07T08:13:11Z
2020-04-07T06:15:35Z,42.805,6.029,13.2998,4.60057,2470.18,2020-4-07T08:16:14Z
2020-04-07T06:18:38Z,42.805,6.029,13.3014,4.60039,2470.194,2020-4-07T08:19:17Z
2020-04-07T06:21:42Z,42.805,6.029,13.3014,4.60032,2470.203,2020-4-07T08:22:20Z
2020-04-07T06:24:45Z,42.805,6.029,13.2996,4.60052,2470.194,2020-4-07T08:25:24Z
2020-04-07T06:27:48Z,42.805,6.029,13.2994,4.60060,2470.217,2020-4-07T08:28:27Z
2020-04-07T06:30:51Z,42.805,6.029,13.2993,4.60051,2470.194,2020-4-07T08:31:30Z
2020-04-07T06:33:55Z,42.805,6.029,13.2998,4.60027,2470.166,2020-4-07T08:34:34Z
2020-04-07T06:36:58Z,42.805,6.029,13.3004,4.60028,2470.203,2020-4-07T08:37:37Z
2020-04-07T06:40:01Z,42.805,6.029,13.2983,4.60026,2470.194,2020-4-07T08:40:40Z
2020-04-07T06:43:04Z,42.805,6.029,13.2990,4.60046,2470.194,2020-4-07T08:43:43Z
2020-04-07T06:46:08Z,42.805,6.029,13.2984,4.60033,2470.18,2020-4-07T08:46:46Z
2020-04-07T06:49:11Z,42.805,6.029,13.2989,4.60049,2470.18,2020-4-07T08:49:50Z
2020-04-07T06:52:14Z,42.805,6.029,13.2991,4.60078,2470.18,2020-4-07T08:52:53Z
2020-04-07T06:55:17Z,42.805,6.029,13.3003,4.60043,2470.194,2020-4-07T08:55:56Z
2020-04-07T06:58:21Z,42.805,6.029,13.3012,4.60025,2470.18,2020-4-07T08:58:59Z
2020-04-07T07:01:24Z,42.805,6.029,13.2986,4.60021,2470.194,2020-4-07T09:02:03Z
2020-04-07T07:04:27Z,42.805,6.029,13.2987,4.60013,2470.194,2020-4-07T09:05:06Z
2020-04-07T07:07:30Z,42.805,6.029,13.2991,4.60026,2470.18,2020-4-07T09:08:09Z
2020-04-07T07:10:33Z,42.805,6.029,13.2988,4.60022,2470.171,2020-4-07T09:11:12Z
2020-04-07T07:13:37Z,42.805,6.029,13.2990,4.60035,2470.171,2020-4-07T09:14:16Z
2020-04-07T07:16:40Z,42.805,6.029,13.2981,4.60031,2470.133,2020-4-07T09:17:19Z
2020-04-07T07:19:43Z,42.805,6.029,13.2984,4.60025,2470.156,2020-4-07T09:20:22Z
2020-04-07T07:22:46Z,42.805,6.029,13.2982,4.60015,2470.156,2020-4-07T09:23:25Z
2020-04-07T07:25:50Z,42.805,6.029,13.2986,4.60032,2470.156,2020-4-07T09:26:29Z
2020-04-07T07:28:53Z,42.805,6.029,13.2986,4.60010,2470.171,2020-4-07T09:29:32Z
2020-04-07T07:31:56Z,42.805,6.029,13.2988,4.60019,2470.171,2020-4-07T09:32:35Z
2020-04-07T07:34:59Z,42.805,6.029,13.2983,4.60004,2470.171,2020-4-07T09:35:38Z
2020-04-07T07:38:03Z,42.805,6.029,13.2990,4.60027,2470.156,2020-4-07T09:38:41Z
2020-04-07T07:41:06Z,42.805,6.029,13.2993,4.60025,2470.18,2020-4-07T09:41:45Z
2020-04-07T07:44:09Z,42.805,6.029,13.3001,4.60024,2470.156,2020-4-07T09:44:48Z
2020-04-07T07:47:12Z,42.805,6.029,13.2979,4.60020,2470.171,2020-4-07T09:47:51Z
2020-04-07T07:50:15Z,42.805,6.029,13.2985,4.60039,2470.18,2020-4-07T09:50:54Z
2020-04-07T07:53:19Z,42.805,6.029,13.2997,4.60005,2470.171,2020-4-07T09:53:58Z
2020-04-07T07:56:22Z,42.805,6.029,13.2991,4.60074,2470.171,2020-4-07T09:57:01Z
2020-04-07T07:59:25Z,42.805,6.029,13.2985,4.60025,2470.18,2020-4-07T10:00:04Z
2020-04-07T08:02:28Z,42.805,6.029,13.2991,4.60041,2470.171,2020-4-07T10:03:07Z
2020-04-07T08:05:32Z,42.805,6.029,13.2982,4.60024,2470.133,2020-4-07T10:06:11Z
2020-04-07T08:08:35Z,42.805,6.029,13.2986,4.60019,2470.156,2020-4-07T10:09:14Z
2020-04-07T08:11:38Z,42.805,6.029,13.3000,4.60032,2470.156,2020-4-07T10:12:17Z
2020-04-07T08:14:42Z,42.805,6.029,13.2997,4.60047,2470.194,2020-4-07T10:15:20Z
2020-04-07T08:17:45Z,42.805,6.029,13.3001,4.60026,2470.194,2020-4-07T10:18:24Z
2020-04-07T08:20:48Z,42.805,6.029,13.2993,4.60046,2470.18,2020-4-07T10:21:27Z
2020-04-07T08:23:51Z,42.805,6.029,13.2990,4.60031,2470.156,2020-4-07T10:24:30Z
2020-04-07T08:26:55Z,42.805,6.029,13.2988,4.60019,2470.147,2020-4-07T10:27:34Z
2020-04-07T08:29:58Z,42.805,6.029,13.2985,4.60019,2470.133,2020-4-07T10:30:37Z
2020-04-07T08:33:01Z,42.805,6.029,13.2985,4.60014,2470.133,2020-4-07T10:33:40Z
2020-04-07T08:36:04Z,42.805,6.029,13.2981,4.60010,2470.147,2020-4-07T10:36:43Z
2020-04-07T08:39:08Z,42.805,6.029,13.2982,4.60003,2470.171,2020-4-07T10:39:47Z
2020-04-07T08:42:11Z,42.805,6.029,13.2983,4.60006,2470.133,2020-4-07T10:42:50Z
2020-04-07T08:45:14Z,42.805,6.029,13.2979,4.60012,2470.133,2020-4-07T10:45:53Z
2020-04-07T08:48:17Z,42.805,6.029,13.2983,4.60010,2470.171,2020-4-07T10:48:56Z
2020-04-07T08:51:21Z,42.805,6.029,13.2983,4.60008,2470.147,2020-4-07T10:52:00Z
2020-04-07T08:54:24Z,42.805,6.029,13.2984,4.60038,2470.133,2020-4-07T10:55:03Z
2020-04-07T08:57:27Z,42.805,6.029,13.2990,4.60031,2470.147,2020-4-07T10:58:06Z
2020-04-07T09:00:30Z,42.805,6.029,13.2980,4.60029,2470.147,2020-4-07T11:01:09Z
2020-04-07T09:03:34Z,42.805,6.029,13.2983,4.60057,2470.133,2020-4-07T11:04:12Z
2020-04-07T09:06:37Z,42.805,6.029,13.2991,4.60015,2470.124,2020-4-07T11:07:16Z
2020-04-07T09:09:40Z,42.805,6.029,13.2988,4.60029,2470.133,2020-4-07T11:10:19Z
2020-04-07T09:12:43Z,42.805,6.029,13.2993,4.60039,2470.11,2020-4-07T11:13:22Z
2020-04-07T09:15:46Z,42.805,6.029,13.2985,4.60009,2470.124,2020-4-07T11:16:25Z
2020-04-07T09:18:50Z,42.805,6.029,13.2985,4.60034,2470.087,2020-4-07T11:19:29Z
2020-04-07T09:21:53Z,42.805,6.029,13.2992,4.60024,2470.133,2020-4-07T11:22:32Z
2020-04-07T09:24:56Z,42.805,6.029,13.2990,4.60034,2470.11,2020-4-07T11:25:35Z
2020-04-07T09:28:00Z,42.805,6.029,13.3008,4.60029,2470.11,2020-4-07T11:28:38Z
2020-04-07T09:31:03Z,42.805,6.029,13.3004,4.60026,2470.11,2020-4-07T11:31:42Z
2020-04-07T09:34:06Z,42.805,6.029,13.3014,4.60022,2470.11,2020-4-07T11:34:45Z
2020-04-07T09:37:10Z,42.805,6.029,13.2983,4.59995,2470.124,2020-4-07T11:37:48Z
2020-04-07T09:40:13Z,42.805,6.029,13.2987,4.59992,2470.11,2020-4-07T11:40:52Z
2020-04-07T09:43:16Z,42.805,6.029,13.2979,4.59998,2470.11,2020-4-07T11:43:55Z
2020-04-07T09:46:19Z,42.805,6.029,13.2979,4.59996,2470.1,2020-4-07T11:46:58Z
2020-04-07T09:49:23Z,42.805,6.029,13.2988,4.60003,2470.087,2020-4-07T11:50:02Z
2020-04-07T09:52:26Z,42.805,6.029,13.2991,4.60023,2470.04,2020-4-07T11:53:05Z
2020-04-07T09:55:29Z,42.805,6.029,13.2991,4.60026,2470.11,2020-4-07T11:56:08Z
2020-04-07T09:58:32Z,42.805,6.029,13.2990,4.60014,2470.087,2020-4-07T11:59:11Z
2020-04-07T10:01:36Z,42.805,6.029,13.2991,4.60044,2470.04,2020-4-07T12:02:15Z
2020-04-07T10:04:39Z,42.805,6.029,13.3001,4.60044,2470.087,2020-4-07T12:05:18Z
2020-04-07T10:07:42Z,42.805,6.029,13.2989,4.60020,2470.04,2020-4-07T12:08:21Z
2020-04-07T10:10:45Z,42.805,6.029,13.2988,4.60022,2470.063,2020-4-07T12:11:24Z
2020-04-07T10:13:49Z,42.805,6.029,13.2988,4.60004,2470.063,2020-4-07T12:14:28Z
2020-04-07T10:16:52Z,42.805,6.029,13.2982,4.59996,2470.063,2020-4-07T12:17:31Z
2020-04-07T10:19:55Z,42.805,6.029,13.2979,4.60001,2470.04,2020-4-07T12:20:34Z
2020-04-07T10:22:58Z,42.805,6.029,13.2982,4.60011,2470.077,2020-4-07T12:23:37Z
2020-04-07T10:26:01Z,42.805,6.029,13.2995,4.60024,2470.063,2020-4-07T12:26:40Z
2020-04-07T10:29:05Z,42.805,6.029,13.3004,4.60034,2470.063,2020-4-07T12:29:44Z
2020-04-07T10:32:08Z,42.805,6.029,13.3000,4.60055,2470.04,2020-4-07T12:32:47Z
2020-04-07T10:35:11Z,42.805,6.029,13.2993,4.60033,2470.063,2020-4-07T12:35:50Z
2020-04-07T10:38:14Z,42.805,6.029,13.3013,4.60035,2470.03,2020-4-07T12:38:53Z
2020-04-07T10:41:18Z,42.805,6.029,13.3004,4.60049,2470.04,2020-4-07T12:41:57Z
2020-04-07T10:44:21Z,42.805,6.029,13.3024,4.60038,2470.04,2020-4-07T12:45:00Z
2020-04-07T10:47:24Z,42.805,6.029,13.3010,4.60024,2470.053,2020-4-07T12:48:03Z
2020-04-07T10:50:27Z,42.805,6.029,13.3012,4.60044,2470.003,2020-4-07T12:51:06Z
2020-04-07T10:53:31Z,42.805,6.029,13.3013,4.60055,2470.03,2020-4-07T12:54:10Z
2020-04-07T10:56:34Z,42.805,6.029,13.3016,4.60050,2470.017,2020-4-07T12:57:13Z
2020-04-07T10:59:37Z,42.805,6.029,13.3018,4.60064,2470.04,2020-4-07T13:00:16Z
2020-04-07T11:02:40Z,42.805,6.029,13.3017,4.60019,2469.993,2020-4-07T13:03:19Z
2020-04-07T11:05:44Z,42.805,6.029,13.3007,4.60056,2470.04,2020-4-07T13:06:23Z
2020-04-07T11:08:47Z,42.805,6.029,13.3003,4.60072,2469.993,2020-4-07T13:09:26Z
2020-04-07T11:11:50Z,42.805,6.029,13.3004,4.60046,2469.984,2020-4-07T13:12:29Z
2020-04-07T11:14:53Z,42.805,6.029,13.3016,4.60036,2470.007,2020-4-07T13:15:32Z
2020-04-07T11:17:57Z,42.805,6.029,13.2993,4.60040,2470.017,2020-4-07T13:18:36Z
2020-04-07T11:21:00Z,42.805,6.029,13.3005,4.60057,2470.007,2020-4-07T13:21:39Z
2020-04-07T11:24:03Z,42.805,6.029,13.3011,4.60043,2469.993,2020-4-07T13:24:42Z
2020-04-07T11:27:06Z,42.805,6.029,13.3009,4.60061,2469.984,2020-4-07T13:27:45Z
2020-04-07T11:30:10Z,42.805,6.029,13.3007,4.60044,2470.007,2020-4-07T13:30:49Z
2020-04-07T11:33:13Z,42.805,6.029,13.2998,4.60045,2469.96,2020-4-07T13:33:52Z
2020-04-07T11:36:16Z,42.805,6.029,13.3029,4.60036,2469.984,2020-4-07T13:36:55Z
2020-04-07T11:39:19Z,42.805,6.029,13.3021,4.60001,2469.993,2020-4-07T13:39:58Z
2020-04-07T11:42:22Z,42.805,6.029,13.2996,4.60050,2470.007,2020-4-07T13:43:01Z
2020-04-07T11:45:26Z,42.805,6.029,13.3001,4.60051,2469.947,2020-4-07T13:46:05Z
2020-04-07T11:48:29Z,42.805,6.029,13.3029,4.60031,2469.984,2020-4-07T13:49:08Z
2020-04-07T11:51:33Z,42.805,6.029,13.3006,4.60011,2469.984,2020-4-07T13:52:12Z
2020-04-07T11:54:36Z,42.805,6.029,13.3030,4.60042,2469.96,2020-4-07T13:55:15Z
2020-04-07T11:57:39Z,42.805,6.029,13.3024,4.60029,2469.96,2020-4-07T13:58:18Z
2020-04-07T12:00:42Z,42.805,6.029,13.3003,4.60059,2469.947,2020-4-07T14:01:21Z
2020-04-07T12:03:46Z,42.805,6.029,13.3006,4.60044,2469.96,2020-4-07T14:04:25Z
2020-04-07T12:06:49Z,42.805,6.029,13.3022,4.60059,2469.923,2020-4-07T14:07:28Z
2020-04-07T12:09:52Z,42.805,6.029,13.3011,4.60069,2469.96,2020-4-07T14:10:31Z
2020-04-07T12:12:55Z,42.805,6.029,13.3008,4.60038,2469.96,2020-4-07T14:13:34Z
2020-04-07T12:15:58Z,42.805,6.029,13.3015,4.60041,2469.947,2020-4-07T14:16:37Z
2020-04-07T12:19:02Z,42.805,6.029,13.3008,4.60036,2469.97,2020-4-07T14:19:41Z
2020-04-07T12:22:05Z,42.805,6.029,13.3011,4.60033,2469.96,2020-4-07T14:22:44Z
2020-04-07T12:25:08Z,42.805,6.029,13.3008,4.60062,2469.947,2020-4-07T14:25:47Z
2020-04-07T12:28:11Z,42.805,6.029,13.3008,4.60033,2469.947,2020-4-07T14:28:50Z
2020-04-07T12:31:15Z,42.805,6.029,13.3022,4.60064,2469.947,2020-4-07T14:31:54Z
2020-04-07T12:34:18Z,42.805,6.029,13.3021,4.60008,2469.937,2020-4-07T14:34:57Z
2020-04-07T12:37:21Z,42.805,6.029,13.3004,4.60043,2469.923,2020-4-07T14:38:00Z
2020-04-07T12:40:24Z,42.805,6.029,13.3042,4.60051,2469.923,2020-4-07T14:41:03Z
2020-04-07T12:43:27Z,42.805,6.029,13.3031,4.60103,2469.914,2020-4-07T14:44:06Z
2020-04-07T12:46:31Z,42.805,6.029,13.3037,4.60047,2469.96,2020-4-07T14:47:10Z
2020-04-07T12:49:34Z,42.805,6.029,13.3009,4.60011,2469.937,2020-4-07T14:50:13Z
2020-04-07T12:52:37Z,42.805,6.029,13.3026,4.60067,2469.914,2020-4-07T14:53:16Z
2020-04-07T12:55:40Z,42.805,6.029,13.3033,4.60027,2469.923,2020-4-07T14:56:19Z
2020-04-07T12:58:44Z,42.805,6.029,13.3022,4.60077,2469.914,2020-4-07T14:59:23Z
2020-04-07T13:01:47Z,42.805,6.029,13.3029,4.60040,2469.914,2020-4-07T15:02:26Z
2020-04-07T13:04:50Z,42.805,6.029,13.3025,4.60051,2469.9,2020-4-07T15:05:29Z
2020-04-07T13:07:53Z,42.805,6.029,13.3024,4.60040,2469.9,2020-4-07T15:08:32Z
2020-04-07T13:10:57Z,42.805,6.029,13.3023,4.60072,2469.9,2020-4-07T15:11:36Z
2020-04-07T13:14:00Z,42.805,6.029,13.3032,4.60054,2469.876,2020-4-07T15:14:39Z
2020-04-07T13:17:03Z,42.805,6.029,13.3015,4.60064,2469.923,2020-4-07T15:17:42Z
2020-04-07T13:20:06Z,42.805,6.029,13.3031,4.60044,2469.9,2020-4-07T15:20:45Z
2020-04-07T13:23:09Z,42.805,6.029,13.3009,4.60057,2469.914,2020-4-07T15:23:48Z
2020-04-07T13:26:13Z,42.805,6.029,13.3020,4.60031,2469.923,2020-4-07T15:26:52Z
2020-04-07T13:29:16Z,42.805,6.029,13.3034,4.60041,2469.9,2020-4-07T15:29:55Z
2020-04-07T13:32:19Z,42.805,6.029,13.3000,4.60031,2469.9,2020-4-07T15:32:58Z
2020-04-07T13:35:22Z,42.805,6.029,13.3011,4.60059,2469.937,2020-4-07T15:36:01Z
2020-04-07T13:38:26Z,42.805,6.029,13.3026,4.60036,2469.937,2020-4-07T15:39:05Z
2020-04-07T13:41:29Z,42.805,6.029,13.3009,4.60029,2469.923,2020-4-07T15:42:08Z
2020-04-07T13:44:32Z,42.805,6.029,13.3026,4.60090,2469.89,2020-4-07T15:45:11Z
2020-04-07T13:47:35Z,42.805,6.029,13.3006,4.60054,2469.876,2020-4-07T15:48:14Z
2020-04-07T13:50:39Z,42.805,6.029,13.3000,4.60049,2469.914,2020-4-07T15:51:18Z
2020-04-07T13:53:42Z,42.805,6.029,13.2996,4.60024,2469.876,2020-4-07T15:54:21Z
2020-04-07T13:56:45Z,42.805,6.029,13.3004,4.60033,2469.9,2020-4-07T15:57:24Z
2020-04-07T13:59:48Z,42.805,6.029,13.2997,4.60024,2469.9,2020-4-07T16:00:27Z
2020-04-07T14:02:51Z,42.805,6.029,13.3011,4.60045,2469.9,2020-4-07T16:03:30Z
2020-04-07T14:05:55Z,42.805,6.029,13.3004,4.60009,2469.923,2020-4-07T16:06:34Z
2020-04-07T14:08:58Z,42.805,6.029,13.2996,4.60034,2469.9,2020-4-07T16:09:37Z
2020-04-07T14:12:01Z,42.805,6.029,13.3004,4.60060,2469.9,2020-4-07T16:12:40Z
2020-04-07T14:15:05Z,42.805,6.029,13.2995,4.60057,2469.914,2020-4-07T16:15:44Z
2020-04-07T14:18:08Z,42.805,6.029,13.2994,4.60053,2469.9,2020-4-07T16:18:47Z
2020-04-07T14:21:11Z,42.805,6.029,13.2994,4.60037,2469.914,2020-4-07T16:21:50Z
2020-04-07T14:24:14Z,42.805,6.029,13.2996,4.60050,2469.937,2020-4-07T16:24:53Z
2020-04-07T14:27:17Z,42.805,6.029,13.2998,4.60037,2469.923,2020-4-07T16:27:56Z
2020-04-07T14:30:20Z,42.805,6.029,13.3025,4.60056,2469.9,2020-4-07T16:30:59Z
2020-04-07T14:33:24Z,42.805,6.029,13.3007,4.60003,2469.89,2020-4-07T16:34:03Z
2020-04-07T14:36:27Z,42.805,6.029,13.3015,4.60052,2469.923,2020-4-07T16:37:06Z
2020-04-07T14:39:30Z,42.805,6.029,13.3030,4.60053,2469.9,2020-4-07T16:40:09Z
2020-04-07T14:42:33Z,42.805,6.029,13.2984,4.60059,2469.914,2020-4-07T16:43:12Z
2020-04-07T14:45:37Z,42.805,6.029,13.3015,4.60055,2469.876,2020-4-07T16:46:15Z
2020-04-07T14:48:40Z,42.805,6.029,13.3000,4.60044,2469.9,2020-4-07T16:49:19Z
2020-04-07T14:51:43Z,42.805,6.029,13.3012,4.60074,2469.923,2020-4-07T16:52:22Z
2020-04-07T14:54:46Z,42.805,6.029,13.3015,4.60058,2469.923,2020-4-07T16:55:25Z
2020-04-07T14:57:49Z,42.805,6.029,13.3021,4.60044,2469.937,2020-4-07T16:58:28Z
2020-04-07T15:00:53Z,42.805,6.029,13.3006,4.60030,2469.914,2020-4-07T17:01:31Z
2020-04-07T15:03:56Z,42.805,6.029,13.3016,4.60036,2469.9,2020-4-07T17:04:35Z
2020-04-07T15:06:59Z,42.805,6.029,13.3036,4.60046,2469.923,2020-4-07T17:07:38Z
2020-04-07T15:10:02Z,42.805,6.029,13.3031,4.60035,2469.937,2020-4-07T17:10:41Z
2020-04-07T15:13:05Z,42.805,6.029,13.3015,4.60025,2469.97,2020-4-07T17:13:44Z
2020-04-07T15:16:09Z,42.805,6.029,13.3021,4.60046,2469.96,2020-4-07T17:16:48Z